TimeCDT,TemperatureF,Dew PointF,Humidity,Sea Level PressureIn,VisibilityMPH,Wind Direction,Wind SpeedMPH,Gust SpeedMPH,PrecipitationIn,Events,Conditions,WindDirDegrees,DateUTC
12:53 AM,48.0,39.0,71,29.94,7.0,SSW,5.8,-,N/A,,Clear,200,2012-11-02 05:53:00
1:53 AM,48.0,39.9,74,29.93,6.0,SSW,6.9,-,N/A,,Haze,200,2012-11-02 06:53:00
2:53 AM,48.9,39.9,71,29.93,6.0,SSW,6.9,-,N/A,,Haze,210,2012-11-02 07:53:00
3:53 AM,48.9,41.0,74,29.92,6.0,SW,6.9,-,N/A,,Haze,220,2012-11-02 08:53:00
4:53 AM,48.9,39.9,71,29.93,5.0,WSW,4.6,-,N/A,,Haze,240,2012-11-02 09:53:00
5:53 AM,48.0,39.9,74,29.95,9.0,WSW,3.5,-,N/A,,Clear,250,2012-11-02 10:53:00
6:53 AM,46.0,39.9,79,29.96,10.0,Calm,Calm,-,N/A,,Clear,0,2012-11-02 11:53:00
7:53 AM,45.0,39.9,82,29.99,10.0,WSW,3.5,-,N/A,,Clear,240,2012-11-02 12:53:00
8:53 AM,53.1,44.1,71,30.02,10.0,NNW,8.1,-,N/A,,Clear,340,2012-11-02 13:53:00
9:53 AM,55.9,42.1,60,30.04,10.0,NNE,9.2,-,N/A,,Clear,30,2012-11-02 14:53:00
10:53 AM,60.1,43.0,53,30.05,10.0,NE,6.9,-,N/A,,Clear,40,2012-11-02 15:53:00
11:53 AM,64.0,39.9,41,30.04,10.0,NE,10.4,-,N/A,,Clear,50,2012-11-02 16:53:00
12:53 PM,66.0,39.9,38,30.01,10.0,ENE,8.1,-,N/A,,Clear,60,2012-11-02 17:53:00
1:53 PM,68.0,39.9,36,29.99,10.0,ENE,6.9,-,N/A,,Clear,70,2012-11-02 18:53:00
2:53 PM,69.1,41.0,36,29.99,10.0,ENE,5.8,-,N/A,,Clear,70,2012-11-02 19:53:00
3:53 PM,70.0,37.9,31,29.98,10.0,NNE,6.9,-,N/A,,Clear,30,2012-11-02 20:53:00
4:53 PM,68.0,34.0,28,29.99,10.0,ENE,4.6,-,N/A,,Clear,60,2012-11-02 21:53:00
5:53 PM,62.1,36.0,38,29.99,10.0,NE,3.5,-,N/A,,Clear,40,2012-11-02 22:53:00
6:53 PM,57.0,37.0,47,30.00,10.0,NE,5.8,-,N/A,,Clear,50,2012-11-02 23:53:00
7:53 PM,55.0,37.9,53,30.01,10.0,ENE,4.6,-,N/A,,Clear,60,2012-11-03 00:53:00
8:53 PM,53.1,37.9,57,30.00,10.0,ENE,4.6,-,N/A,,Clear,70,2012-11-03 01:53:00
9:53 PM,54.0,35.1,49,30.01,10.0,East,6.9,-,N/A,,Clear,80,2012-11-03 02:53:00
10:53 PM,51.1,37.0,59,30.00,10.0,East,5.8,-,N/A,,Clear,100,2012-11-03 03:53:00
11:53 PM,51.1,37.0,59,30.00,10.0,East,4.6,-,N/A,,Clear,100,2012-11-03 04:53:00